Location: L�tisburg
(47.3947°N, 9.0820°E)
Time: 21:13:22
(UTC+00:00)

ARGOS - Pass Details

Date: 03 March 2021
Orbit: 819 x 835 km, 98.4° (Epoch: 14 April)

Event Time Altitude Azimuth Distance (km) Brightness Sun altitude
Rises 17:49:19 0° 151° (SSE) 3,368 6.1 -7.1°
Reaches altitude 10° 17:51:42 10° 148° (SSE) 2,440 5.3 -7.5°
Maximum altitude 17:56:59 58° 70° (ENE) 975 3.3 -8.4°
Drops below altitude 10° 18:02:19 10° 353° (N) 2,459 5.7 -9.3°
Sets 18:04:43 0° 350° (N) 3,397 6.5 -9.7°
